• In Hungary
  • List of Countries
  • For 7 days
  • Water Temperature
  • Satellite Maps
  • Weather Map
  • News
  • Weather Widgets
  • user-avatar
    Login

    Hourly Weather Santa Cruz

    Today, 22 February, Thursday

    Time Temperature Precipitation Wind Pressure Humidity
    00:00 +25°C° 0 mm 5 mps 739 mmHg 71%
    01:00 +25°C° 0 mm 5 mps 738 mmHg 71%
    02:00 +24°C° 0 mm 6 mps 738 mmHg 71%
    03:00 +24°C° 0 mm 6 mps 738 mmHg 71%
    04:00 +24°C° 0 mm 6 mps 738 mmHg 71%
    05:00 +24°C° 0 mm 6 mps 738 mmHg 71%
    06:00 +24°C° 0 mm 6 mps 738 mmHg 72%
    07:00 +27°C° 0 mm 7 mps 738 mmHg 64%
    08:00 +29°C° 0 mm 7 mps 739 mmHg 56%
    09:00 +32°C° 0 mm 7 mps 739 mmHg 48%
    10:00 +33°C° 0 mm 7 mps 739 mmHg 44%
    11:00 +34°C° 0 mm 6 mps 739 mmHg 41%
    12:00 +36°C° 0 mm 6 mps 739 mmHg 37%
    13:00 +35°C° 0 mm 6 mps 738 mmHg 39%
    14:00 +34°C° 0 mm 6 mps 737 mmHg 40%
    15:00 +34°C° 0 mm 6 mps 737 mmHg 42%
    16:00 +32°C° 0.1 mm 5 mps 737 mmHg 47%
    17:00 +30°C° 0.1 mm 5 mps 737 mmHg 53%
    18:00 +28°C° 0.1 mm 5 mps 737 mmHg 58%
    19:00 +27°C° 0 mm 5 mps 737 mmHg 61%
    20:00 +26°C° 0 mm 5 mps 738 mmHg 64%
    21:00 +26°C° 0 mm 5 mps 738 mmHg 67%
    22:00 +25°C° 0 mm 5 mps 738 mmHg 68%
    23:00 +24°C° 0 mm 6 mps 738 mmHg 68%

    Tomorrow, 23 February, Friday

    Time Temperature Precipitation Wind Pressure Humidity
    00:00 +24°C° 0 mm 6 mps 738 mmHg 69%
    01:00 +24°C° 0 mm 6 mps 738 mmHg 69%
    02:00 +24°C° 0 mm 6 mps 738 mmHg 70%
    03:00 +23°C° 0 mm 6 mps 737 mmHg 70%
    04:00 +23°C° 0 mm 6 mps 737 mmHg 70%
    05:00 +23°C° 0 mm 6 mps 737 mmHg 70%
    06:00 +23°C° 0 mm 6 mps 737 mmHg 70%
    07:00 +26°C° 0 mm 7 mps 738 mmHg 62%
    08:00 +29°C° 0 mm 7 mps 739 mmHg 54%
    09:00 +32°C° 0 mm 7 mps 739 mmHg 45%
    10:00 +33°C° 0 mm 7 mps 739 mmHg 42%
    11:00 +34°C° 0 mm 6 mps 738 mmHg 38%
    12:00 +36°C° 0 mm 6 mps 738 mmHg 34%
    13:00 +36°C° 0 mm 6 mps 737 mmHg 34%
    14:00 +36°C° 0 mm 6 mps 736 mmHg 35%
    15:00 +35°C° 0 mm 6 mps 736 mmHg 35%
    16:00 +34°C° 0 mm 5 mps 736 mmHg 41%
    17:00 +32°C° 0 mm 4 mps 736 mmHg 48%
    18:00 +29°C° 0 mm 3 mps 736 mmHg 54%
    19:00 +28°C° 0 mm 3 mps 737 mmHg 59%
    20:00 +26°C° 0 mm 3 mps 737 mmHg 64%
    21:00 +25°C° 0 mm 3 mps 738 mmHg 68%
    22:00 +25°C° 0 mm 4 mps 738 mmHg 70%
    23:00 +23°C° 0 mm 4 mps 738 mmHg 72%

    Day after tomorrow, 24 February, Saturday

    Time Temperature Precipitation Wind Pressure Humidity
    00:00 +23°C° 0 mm 4 mps 738 mmHg 73%
    01:00 +23°C° 0 mm 4 mps 737 mmHg 75%
    02:00 +23°C° 0 mm 4 mps 737 mmHg 76%
    03:00 +22°C° 0 mm 4 mps 736 mmHg 77%
    04:00 +22°C° 0 mm 4 mps 737 mmHg 78%
    05:00 +22°C° 0 mm 4 mps 737 mmHg 79%
    06:00 +22°C° 0 mm 4 mps 737 mmHg 79%
    07:00 +25°C° 0 mm 5 mps 738 mmHg 69%
    08:00 +28°C° 0 mm 5 mps 738 mmHg 59%
    09:00 +30°C° 0 mm 5 mps 739 mmHg 49%
    10:00 +33°C° 0 mm 5 mps 738 mmHg 44%
    11:00 +34°C° 0 mm 5 mps 738 mmHg 38%
    12:00 +36°C° 0 mm 4 mps 738 mmHg 33%
    13:00 +36°C° 0 mm 4 mps 737 mmHg 35%
    14:00 +35°C° 0 mm 4 mps 736 mmHg 36%
    15:00 +35°C° 0 mm 4 mps 736 mmHg 38%
    16:00 +33°C° 0.1 mm 4 mps 736 mmHg 45%
    17:00 +30°C° 0.1 mm 3 mps 736 mmHg 53%
    18:00 +28°C° 0.1 mm 2 mps 736 mmHg 60%
    19:00 +27°C° 0.1 mm 2 mps 737 mmHg 65%
    20:00 +26°C° 0.1 mm 2 mps 737 mmHg 70%
    21:00 +25°C° 0.1 mm 2 mps 738 mmHg 74%
    22:00 +25°C° 0 mm 2 mps 738 mmHg 76%
    23:00 +24°C° 0 mm 2 mps 738 mmHg 79%

    25 February, Sunday

    Time Temperature Precipitation Wind Pressure Humidity
    00:00 +24°C° 0 mm 2 mps 738 mmHg 81%
    01:00 +23°C° 0 mm 2 mps 737 mmHg 82%
    02:00 +23°C° 0 mm 2 mps 737 mmHg 83%
    03:00 +21°C° 0 mm 2 mps 736 mmHg 84%
    04:00 +21°C° 0 mm 3 mps 737 mmHg 84%
    05:00 +21°C° 0 mm 3 mps 737 mmHg 84%
    06:00 +21°C° 0 mm 3 mps 737 mmHg 85%
    07:00 +25°C° 0 mm 3 mps 738 mmHg 73%
    08:00 +27°C° 0 mm 3 mps 739 mmHg 62%
    09:00 +30°C° 0 mm 4 mps 739 mmHg 51%
    10:00 +31°C° 0 mm 3 mps 739 mmHg 46%
    11:00 +34°C° 0 mm 3 mps 738 mmHg 40%
    12:00 +35°C° 0 mm 3 mps 738 mmHg 35%
    13:00 +35°C° 0.1 mm 3 mps 737 mmHg 39%
    14:00 +34°C° 0.1 mm 3 mps 737 mmHg 42%
    15:00 +33°C° 0.1 mm 3 mps 736 mmHg 46%
    16:00 +30°C° 0.4 mm 3 mps 736 mmHg 53%
    17:00 +29°C° 0.4 mm 2 mps 737 mmHg 60%
    18:00 +27°C° 0.4 mm 2 mps 737 mmHg 66%
    19:00 +27°C° 0.2 mm 2 mps 737 mmHg 70%
    20:00 +26°C° 0.2 mm 2 mps 738 mmHg 74%
    21:00 +25°C° 0.2 mm 2 mps 738 mmHg 77%
    22:00 +25°C° 0.1 mm 2 mps 738 mmHg 79%
    23:00 +24°C° 0.1 mm 3 mps 738 mmHg 81%

    26 February, Monday

    Time Temperature Precipitation Wind Pressure Humidity
    00:00 +24°C° 0.1 mm 3 mps 738 mmHg 82%
    01:00 +22°C° 0 mm 3 mps 738 mmHg 83%
    02:00 +22°C° 0 mm 3 mps 737 mmHg 84%
    03:00 +22°C° 0 mm 3 mps 737 mmHg 85%
    04:00 +22°C° 0 mm 3 mps 737 mmHg 84%
    05:00 +21°C° 0 mm 3 mps 738 mmHg 84%
    06:00 +21°C° 0 mm 4 mps 738 mmHg 84%
    07:00 +25°C° 0 mm 4 mps 739 mmHg 73%
    08:00 +27°C° 0 mm 4 mps 739 mmHg 62%
    09:00 +30°C° 0 mm 5 mps 740 mmHg 51%
    10:00 +32°C° 0 mm 5 mps 739 mmHg 45%
    11:00 +34°C° 0 mm 4 mps 739 mmHg 40%
    12:00 +36°C° 0 mm 4 mps 738 mmHg 35%
    13:00 +35°C° 0 mm 4 mps 738 mmHg 38%
    14:00 +34°C° 0 mm 4 mps 737 mmHg 41%
    15:00 +33°C° 0 mm 4 mps 736 mmHg 45%
    16:00 +32°C° 0.3 mm 4 mps 736 mmHg 51%
    17:00 +29°C° 0.3 mm 3 mps 737 mmHg 58%
    18:00 +28°C° 0.3 mm 2 mps 737 mmHg 64%
    19:00 +27°C° 0 mm 2 mps 737 mmHg 67%
    20:00 +27°C° 0 mm 2 mps 738 mmHg 70%
    21:00 +26°C° 0 mm 2 mps 738 mmHg 73%
    22:00 +25°C° 0 mm 3 mps 738 mmHg 74%
    23:00 +24°C° 0 mm 3 mps 738 mmHg 76%

    27 February, Tuesday

    Time Temperature Precipitation Wind Pressure Humidity
    00:00 +24°C° 0 mm 3 mps 738 mmHg 78%
    01:00 +23°C° 0 mm 4 mps 737 mmHg 79%
    02:00 +22°C° 0 mm 4 mps 737 mmHg 79%
    03:00 +22°C° 0 mm 4 mps 737 mmHg 80%
    04:00 +22°C° 0 mm 4 mps 737 mmHg 80%
    05:00 +22°C° 0 mm 4 mps 737 mmHg 80%
    06:00 +22°C° 0 mm 4 mps 738 mmHg 79%
    07:00 +25°C° 0 mm 4 mps 738 mmHg 69%
    08:00 +28°C° 0 mm 5 mps 738 mmHg 59%
    09:00 +30°C° 0 mm 5 mps 739 mmHg 49%
    10:00 +33°C° 0 mm 5 mps 738 mmHg 44%
    11:00 +34°C° 0 mm 5 mps 738 mmHg 38%
    12:00 +36°C° 0 mm 4 mps 738 mmHg 33%
    13:00 +35°C° 0 mm 5 mps 737 mmHg 36%
    14:00 +35°C° 0 mm 5 mps 736 mmHg 38%
    15:00 +35°C° 0 mm 5 mps 736 mmHg 40%
    16:00 +33°C° 0 mm 4 mps 736 mmHg 47%
    17:00 +30°C° 0 mm 3 mps 736 mmHg 54%
    18:00 +28°C° 0 mm 2 mps 736 mmHg 60%
    19:00 +28°C° 0.1 mm 2 mps 737 mmHg 64%
    20:00 +27°C° 0.1 mm 2 mps 737 mmHg 68%
    21:00 +26°C° 0.1 mm 2 mps 737 mmHg 72%
    22:00 +25°C° 0 mm 3 mps 737 mmHg 74%
    23:00 +24°C° 0 mm 3 mps 737 mmHg 76%
    Show more